START_TIME,STEP,MOV.,A46,t_acc.,A13,t_acc.,M47,t_acc.,A17,t_acc.,A28,t_acc.,M38,t_acc.
1979-07-19 09:00:25.360 ,0,0,,0,1.,4.8,0.,4.8,,0,0.,4.8,0.,4.8
1979-07-19 09:00:30.160 ,0,0,,0,1.,4.8,0.,4.8,,0,0.,4.8,0.,4.8
1979-07-19 09:00:34.960 ,0,0,,0,3.,4.8,0.,4.8,,0,0.,4.8,0.,4.8
1979-07-19 09:00:39.760 ,0,0,,0,0.,4.8,0.,4.8,,0,0.,4.8,0.,4.8
1979-07-19 09:00:44.560 ,0,0,,0,0.,4.8,0.,4.8,,0,0.,4.8,0.,4.8
1979-07-19 09:01:13.360 ,0,0,,0,1.,4.8,0.,4.8,,0,0.,4.8,0.,4.8
1979-07-19 09:01:18.160 ,0,0,,0,2.,4.8,0.,4.8,,0,0.,4.8,0.,4.8
1979-07-19 09:01:22.960 ,0,0,,0,0.,4.8,0.,4.8,,0,0.,4.8,0.,4.8
1979-07-19 09:01:27.760 ,0,0,,0,0.,4.8,0.,4.8,,0,0.,4.8,0.,4.8
1979-07-19 09:01:32.560 ,0,0,,0,0.,4.8,0.,4.8,,0,0.,4.8,0.,4.8
1979-07-19 09:01:37.360 ,1,0,,0,0.,4.8,0.,4.8,,0,0.,4.8,0.,4.8
1979-07-19 09:01:42.160 ,1,0,,0,0.,4.8,0.,4.8,,0,0.,4.8,0.,4.8
1979-07-19 09:01:46.960 ,1,0,,0,0.,4.8,0.,4.8,,0,0.,4.8,0.,4.8
1979-07-19 09:01:51.760 ,1,0,,0,0.,4.8,0.,4.8,,0,0.,4.8,0.,4.8
1979-07-19 09:01:56.560 ,1,0,,0,0.,4.8,0.,4.8,,0,0.,4.8,0.,4.8
1979-07-19 09:03:13.360 ,3,0,,0,1.,4.8,0.,4.8,,0,0.,4.8,0.,4.8
1979-07-19 09:03:18.160 ,3,0,,0,0.,4.8,0.,4.8,,0,0.,4.8,0.,4.8
1979-07-19 09:03:22.960 ,3,0,,0,1.,4.8,0.,4.8,,0,0.,4.8,1.,4.8
1979-07-19 09:03:27.760 ,3,0,,0,3.,4.8,0.,4.8,,0,0.,4.8,1.,4.8
1979-07-19 09:03:32.560 ,3,0,,0,4.,4.8,0.,4.8,,0,0.,4.8,0.,4.8
1979-07-19 09:05:13.360 ,5,0,,0,2.,4.8,0.,4.8,,0,0.,4.8,0.,4.8
1979-07-19 09:05:18.160 ,5,0,,0,1.,4.8,0.,4.8,,0,0.,4.8,0.,4.8
1979-07-19 09:05:22.960 ,5,0,,0,5.,4.8,0.,4.8,,0,0.,4.8,0.,4.8
1979-07-19 09:05:27.760 ,5,0,,0,0.,4.8,0.,4.8,,0,0.,4.8,0.,4.8
1979-07-19 09:05:32.560 ,5,0,,0,0.,4.8,0.,4.8,,0,0.,4.8,0.,4.8
1979-07-19 09:07:13.360 ,3,1,,0,0.,4.8,0.,4.8,,0,0.,4.8,0.,4.8
1979-07-19 09:07:18.160 ,3,1,,0,0.,4.8,0.,4.8,,0,0.,4.8,0.,4.8
1979-07-19 09:07:22.960 ,3,1,,0,2.,4.8,0.,4.8,,0,0.,4.8,0.,4.8
1979-07-19 09:07:27.760 ,3,1,,0,4.,4.8,0.,4.8,,0,0.,4.8,0.,4.8
1979-07-19 09:07:32.560 ,3,1,,0,3.,4.8,0.,4.8,,0,0.,4.8,0.,4.8
1979-07-19 09:08:49.360 ,3,1,,0,0.,4.8,0.,4.8,,0,0.,4.8,1.,4.8
1979-07-19 09:08:54.160 ,3,1,,0,0.,4.8,0.,4.8,,0,0.,4.8,0.,4.8
1979-07-19 09:08:58.960 ,3,1,,0,0.,4.8,0.,4.8,,0,0.,4.8,0.,4.8
1979-07-19 09:09:03.760 ,3,1,,0,4.,4.8,0.,4.8,,0,0.,4.8,0.,4.8
1979-07-19 09:09:08.560 ,3,1,,0,4.,4.8,0.,4.8,,0,0.,4.8,2.,4.8
1979-07-19 09:09:13.360 ,0,1,,0,3.,4.8,0.,4.8,,0,0.,4.8,0.,4.8
1979-07-19 09:09:18.160 ,0,1,,0,1.,4.8,0.,4.8,,0,0.,4.8,0.,4.8
1979-07-19 09:09:22.960 ,0,1,,0,3.,4.8,0.,4.8,,0,0.,4.8,0.,4.8
1979-07-19 09:09:27.760 ,0,1,,0,,0,,0,,0,,0,,0
1979-07-19 09:09:32.560 ,0,1,,0,0.,4.8,0.,4.8,,0,0.,4.8,0.,4.8
1979-07-19 09:09:37.360 ,4,1,,0,0.,4.8,0.,4.8,,0,0.,4.8,0.,4.8
1979-07-19 09:09:42.160 ,4,1,,0,0.,4.8,0.,4.8,,0,0.,4.8,0.,4.8
1979-07-19 09:09:46.960 ,4,1,,0,2.,4.8,0.,4.8,,0,0.,4.8,1.,4.8
1979-07-19 09:09:51.760 ,4,1,,0,5.,4.8,0.,4.8,,0,0.,4.8,1.,4.8
1979-07-19 09:09:56.560 ,4,1,,0,2.,4.8,0.,4.8,,0,0.,4.8,0.,4.8
1979-07-19 09:10:49.360 ,0,1,,0,8.,4.8,0.,4.8,,0,0.,4.8,2.,4.8
1979-07-19 09:10:54.160 ,0,1,,0,2.,4.8,0.,4.8,,0,0.,4.8,0.,4.8
1979-07-19 09:10:58.960 ,0,1,,0,1.,4.8,0.,4.8,,0,0.,4.8,0.,4.8
1979-07-19 09:11:03.760 ,0,1,,0,0.,4.8,0.,4.8,,0,0.,4.8,0.,4.8
1979-07-19 09:11:08.560 ,0,1,,0,0.,4.8,0.,4.8,,0,0.,4.8,0.,4.8
1979-07-19 09:11:13.360 ,4,1,,0,0.,4.8,0.,4.8,,0,0.,4.8,0.,4.8
1979-07-19 09:11:18.160 ,4,1,,0,0.,4.8,0.,4.8,,0,0.,4.8,0.,4.8
1979-07-19 09:11:22.960 ,4,1,,0,1.,4.8,1.,4.8,,0,0.,4.8,2.,4.8
1979-07-19 09:11:27.760 ,4,1,,0,3.,4.8,0.,4.8,,0,0.,4.8,0.,4.8
1979-07-19 09:11:32.560 ,4,1,,0,6.,4.8,0.,4.8,,0,0.,4.8,2.,4.8
1979-07-19 09:12:49.360 ,4,1,,0,0.,4.8,0.,4.8,,0,0.,4.8,2.,4.8
1979-07-19 09:12:54.160 ,4,1,,0,0.,4.8,0.,4.8,,0,0.,4.8,0.,4.8
1979-07-19 09:12:58.960 ,4,1,,0,1.,4.8,0.,4.8,,0,0.,4.8,0.,4.8
1979-07-19 09:13:03.760 ,4,1,,0,4.,4.8,0.,4.8,,0,0.,4.8,1.,4.8
1979-07-19 09:13:08.560 ,4,1,,0,5.,4.8,0.,4.8,,0,0.,4.8,0.,4.8
1979-07-19 09:13:13.360 ,7,1,,0,6.,4.8,0.,4.8,,0,0.,4.8,1.,4.8
1979-07-19 09:13:18.160 ,7,1,,0,2.,4.8,0.,4.8,,0,0.,4.8,1.,4.8
1979-07-19 09:13:22.960 ,7,1,,0,3.,4.8,0.,4.8,,0,0.,4.8,0.,4.8
1979-07-19 09:13:27.760 ,7,1,,0,0.,4.8,0.,4.8,,0,0.,4.8,0.,4.8
1979-07-19 09:13:32.560 ,7,1,,0,0.,4.8,0.,4.8,,0,0.,4.8,0.,4.8
1979-07-19 09:14:49.360 ,7,1,,0,2.,4.8,0.,4.8,,0,0.,4.8,0.,4.8
1979-07-19 09:14:54.160 ,7,1,,0,5.,4.8,0.,4.8,,0,0.,4.8,0.,4.8
1979-07-19 09:14:58.960 ,7,1,,0,2.,4.8,0.,4.8,,0,0.,4.8,0.,4.8
1979-07-19 09:15:03.760 ,7,1,,0,0.,4.8,0.,4.8,,0,0.,4.8,0.,4.8
1979-07-19 09:15:08.560 ,7,1,,0,0.,4.8,0.,4.8,,0,0.,4.8,0.,4.8
1979-07-19 09:15:13.360 ,3,1,,0,0.,4.8,0.,4.8,,0,0.,4.8,0.,4.8
1979-07-19 09:15:18.160 ,3,1,,0,0.,4.8,0.,4.8,,0,0.,4.8,0.,4.8
1979-07-19 09:15:22.960 ,3,1,,0,0.,4.8,0.,4.8,,0,0.,4.8,1.,4.8
1979-07-19 09:15:27.760 ,3,1,,0,5.,4.8,0.,4.8,,0,0.,4.8,1.,4.8
1979-07-19 09:15:32.560 ,3,1,,0,3.,4.8,0.,4.8,,0,0.,4.8,2.,4.8
1979-07-19 09:16:49.360 ,3,1,,0,0.,4.8,0.,4.8,,0,0.,4.8,0.,4.8
1979-07-19 09:16:54.160 ,3,1,,0,0.,4.8,0.,4.8,,0,0.,4.8,0.,4.8
1979-07-19 09:16:58.960 ,3,1,,0,3.,4.8,0.,4.8,,0,0.,4.8,0.,4.8
1979-07-19 09:17:03.760 ,3,1,,0,6.,4.8,0.,4.8,,0,0.,4.8,1.,4.8
1979-07-19 09:17:08.560 ,3,1,,0,3.,4.8,0.,4.8,,0,0.,4.8,4.,4.8
1979-07-19 09:18:49.360 ,5,0,,0,2.,4.8,0.,4.8,,0,0.,4.8,0.,4.8
1979-07-19 09:18:54.160 ,5,0,,0,6.,4.8,0.,4.8,,0,0.,4.8,0.,4.8
1979-07-19 09:18:58.960 ,5,0,,0,0.,4.8,0.,4.8,,0,0.,4.8,0.,4.8
1979-07-19 09:19:03.760 ,5,0,,0,0.,4.8,0.,4.8,,0,0.,4.8,0.,4.8
1979-07-19 09:19:08.560 ,5,0,,0,0.,4.8,0.,4.8,,0,0.,4.8,1.,4.8
1979-07-19 09:20:25.360 ,3,0,,0,9.,4.8,0.,4.8,,0,0.,4.8,5.,4.8
1979-07-19 09:20:30.160 ,3,0,,0,12.,4.8,1.,4.8,,0,0.,4.8,2.,4.8
1979-07-19 09:20:34.960 ,3,0,,0,3.,4.8,0.,4.8,,0,0.,4.8,1.,4.8
1979-07-19 09:20:39.760 ,3,0,,0,0.,4.8,0.,4.8,,0,0.,4.8,0.,4.8
1979-07-19 09:20:44.560 ,3,0,,0,0.,4.8,0.,4.8,,0,0.,4.8,1.,4.8
1979-07-19 09:20:49.360 ,2,0,,0,0.,4.8,0.,4.8,,0,0.,4.8,3.,4.8
1979-07-19 09:20:54.160 ,2,0,,0,0.,4.8,0.,4.8,,0,0.,4.8,2.,4.8
1979-07-19 09:20:58.960 ,2,0,,0,0.,4.8,0.,4.8,,0,0.,4.8,3.,4.8
1979-07-19 09:21:03.760 ,2,0,,0,11.,4.8,0.,4.8,,0,0.,4.8,4.,4.8
1979-07-19 09:21:08.560 ,2,0,,0,9.,4.8,0.,4.8,,0,0.,4.8,3.,4.8
1979-07-19 09:22:25.360 ,0,0,,0,0.,4.8,0.,4.8,,0,0.,4.8,0.,4.8
1979-07-19 09:22:30.160 ,0,0,,0,0.,4.8,0.,4.8,,0,0.,4.8,0.,4.8
1979-07-19 09:22:34.960 ,0,0,,0,1.,4.8,0.,4.8,,0,0.,4.8,0.,4.8
1979-07-19 09:22:39.760 ,0,0,,0,2.,4.8,0.,4.8,,0,0.,4.8,0.,4.8
1979-07-19 09:22:44.560 ,0,0,,0,0.,4.8,0.,4.8,,0,0.,4.8,0.,4.8
1979-07-19 09:22:49.360 ,0,0,,0,1.,4.8,0.,4.8,,0,0.,4.8,0.,4.8
1979-07-19 09:22:54.160 ,0,0,,0,4.,4.8,0.,4.8,,0,0.,4.8,1.,4.8
1979-07-19 09:22:58.960 ,0,0,,0,2.,4.8,0.,4.8,,0,0.,4.8,1.,4.8
1979-07-19 09:23:03.760 ,0,0,,0,0.,4.8,0.,4.8,,0,0.,4.8,0.,4.8
1979-07-19 09:23:08.560 ,0,0,,0,0.,4.8,0.,4.8,,0,0.,4.8,0.,4.8
1979-07-19 09:24:01.360 ,1,0,,0,0.,4.8,0.,4.8,,0,0.,4.8,0.,4.8
1979-07-19 09:24:06.160 ,1,0,,0,0.,4.8,0.,4.8,,0,0.,4.8,0.,4.8
1979-07-19 09:24:10.960 ,1,0,,0,0.,4.8,0.,4.8,,0,0.,4.8,3.,4.8
1979-07-19 09:24:15.760 ,1,0,,0,12.,4.8,0.,4.8,,0,0.,4.8,1.,4.8
1979-07-19 09:24:20.560 ,1,0,,0,4.,4.8,1.,4.8,,0,0.,4.8,0.,4.8
1979-07-19 09:24:25.360 ,1,0,,0,2.,4.8,1.,4.8,,0,0.,4.8,0.,4.8
1979-07-19 09:24:30.160 ,1,0,,0,4.,4.8,0.,4.8,,0,0.,4.8,1.,4.8
1979-07-19 09:24:34.960 ,1,0,,0,6.,4.8,0.,4.8,,0,0.,4.8,2.,4.8
1979-07-19 09:24:39.760 ,1,0,,0,0.,4.8,0.,4.8,,0,0.,4.8,2.,4.8
1979-07-19 09:24:44.560 ,1,0,,0,0.,4.8,0.,4.8,,0,0.,4.8,3.,4.8
1979-07-19 09:26:01.360 ,3,0,,0,9.,4.8,0.,4.8,,0,0.,4.8,3.,4.8
1979-07-19 09:26:06.160 ,3,0,,0,7.,4.8,2.,4.8,,0,0.,4.8,6.,4.8
1979-07-19 09:26:10.960 ,3,0,,0,9.,4.8,0.,4.8,,0,0.,4.8,2.,4.8
1979-07-19 09:26:15.760 ,3,0,,0,0.,4.8,0.,4.8,,0,0.,4.8,2.,4.8
1979-07-19 09:26:20.560 ,3,0,,0,0.,4.8,0.,4.8,,0,0.,4.8,6.,4.8
1979-07-19 09:26:25.360 ,4,0,,0,0.,4.8,0.,4.8,,0,0.,4.8,2.,4.8
1979-07-19 09:26:30.160 ,4,0,,0,0.,4.8,0.,4.8,,0,0.,4.8,2.,4.8
1979-07-19 09:26:34.960 ,4,0,,0,0.,4.8,0.,4.8,,0,0.,4.8,2.,4.8
1979-07-19 09:26:39.760 ,4,0,,0,7.,4.8,1.,4.8,,0,0.,4.8,0.,4.8
1979-07-19 09:26:44.560 ,4,0,,0,7.,4.8,0.,4.8,,0,0.,4.8,0.,4.8
1979-07-19 09:27:37.360 ,5,0,,0,5.,4.8,0.,4.8,,0,0.,4.8,0.,4.8
1979-07-19 09:27:42.160 ,5,0,,0,8.,4.8,0.,4.8,,0,0.,4.8,1.,4.8
1979-07-19 09:27:46.960 ,5,0,,0,2.,4.8,0.,4.8,,0,0.,4.8,1.,4.8
1979-07-19 09:27:51.760 ,5,0,,0,0.,4.8,0.,4.8,,0,0.,4.8,0.,4.8
1979-07-19 09:27:56.560 ,5,0,,0,0.,4.8,0.,4.8,,0,0.,4.8,0.,4.8
1979-07-19 09:28:25.360 ,6,0,,0,4.,4.8,0.,4.8,,0,0.,4.8,0.,4.8
1979-07-19 09:28:30.160 ,6,0,,0,3.,4.8,0.,4.8,,0,0.,4.8,0.,4.8
1979-07-19 09:28:34.960 ,6,0,,0,5.,4.8,0.,4.8,,0,0.,4.8,0.,4.8
1979-07-19 09:28:39.760 ,6,0,,0,0.,4.8,0.,4.8,,0,0.,4.8,0.,4.8
1979-07-19 09:28:44.560 ,6,0,,0,0.,4.8,0.,4.8,,0,0.,4.8,1.,4.8
1979-07-19 09:28:49.360 ,7,0,,0,0.,4.8,0.,4.8,,0,0.,4.8,0.,4.8
1979-07-19 09:28:54.160 ,7,0,,0,0.,4.8,0.,4.8,,0,0.,4.8,0.,4.8
1979-07-19 09:28:58.960 ,7,0,,0,1.,4.8,0.,4.8,,0,0.,4.8,0.,4.8
1979-07-19 09:29:03.760 ,7,0,,0,8.,4.8,0.,4.8,,0,0.,4.8,0.,4.8
1979-07-19 09:29:08.560 ,7,0,,0,11.,4.8,0.,4.8,,0,0.,4.8,0.,4.8
1979-07-19 09:29:13.360 ,7,0,,0,4.,4.8,0.,4.8,,0,0.,4.8,0.,4.8
1979-07-19 09:29:18.160 ,7,0,,0,13.,4.8,0.,4.8,,0,0.,4.8,0.,4.8
1979-07-19 09:29:22.960 ,7,0,,0,9.,4.8,0.,4.8,,0,0.,4.8,0.,4.8
1979-07-19 09:29:27.760 ,7,0,,0,0.,4.8,0.,4.8,,0,0.,4.8,0.,4.8
1979-07-19 09:29:32.560 ,7,0,,0,0.,4.8,0.,4.8,,0,0.,4.8,0.,4.8
1979-07-19 09:30:01.360 ,7,0,,0,12.,4.8,0.,4.8,,0,0.,4.8,0.,4.8
1979-07-19 09:30:06.160 ,7,0,,0,9.,4.8,0.,4.8,,0,0.,4.8,0.,4.8
1979-07-19 09:30:10.960 ,7,0,,0,6.,4.8,0.,4.8,,0,0.,4.8,0.,4.8
1979-07-19 09:30:15.760 ,7,0,,0,0.,4.8,0.,4.8,,0,0.,4.8,0.,4.8
1979-07-19 09:30:20.560 ,7,0,,0,0.,4.8,0.,4.8,,0,0.,4.8,0.,4.8
1979-07-19 09:30:25.360 ,6,0,,0,0.,4.8,0.,4.8,,0,0.,4.8,0.,4.8
1979-07-19 09:30:30.160 ,6,0,,0,0.,4.8,0.,4.8,,0,0.,4.8,1.,4.8
1979-07-19 09:30:34.960 ,6,0,,0,1.,4.8,0.,4.8,,0,0.,4.8,0.,4.8
1979-07-19 09:30:39.760 ,6,0,,0,3.,4.8,0.,4.8,,0,0.,4.8,1.,4.8
1979-07-19 09:30:44.560 ,6,0,,0,5.,4.8,0.,4.8,,0,0.,4.8,1.,4.8
1979-07-19 09:30:49.360 ,6,0,,0,4.,4.8,0.,4.8,,0,0.,4.8,0.,4.8
1979-07-19 09:30:54.160 ,6,0,,0,1.,4.8,0.,4.8,,0,0.,4.8,1.,4.8
1979-07-19 09:30:58.960 ,6,0,,0,5.,4.8,0.,4.8,,0,0.,4.8,0.,4.8
1979-07-19 09:31:03.760 ,6,0,,0,0.,4.8,0.,4.8,,0,0.,4.8,0.,4.8
1979-07-19 09:31:08.560 ,6,0,,0,0.,4.8,0.,4.8,,0,0.,4.8,0.,4.8
1979-07-19 09:32:01.360 ,4,0,,0,0.,4.8,0.,4.8,,0,0.,4.8,0.,4.8
1979-07-19 09:32:06.160 ,4,0,,0,0.,4.8,0.,4.8,,0,0.,4.8,0.,4.8
1979-07-19 09:32:10.960 ,4,0,,0,2.,4.8,0.,4.8,,0,0.,4.8,2.,4.8
1979-07-19 09:32:15.760 ,4,0,,0,9.,4.8,0.,4.8,,0,0.,4.8,0.,4.8
1979-07-19 09:32:20.560 ,4,0,,0,3.,4.8,0.,4.8,,0,0.,4.8,1.,4.8
1979-07-19 09:34:01.360 ,2,0,,0,8.,4.8,1.,4.8,,0,0.,4.8,1.,4.8
1979-07-19 09:34:06.160 ,2,0,,0,6.,4.8,0.,4.8,,0,0.,4.8,4.,4.8
1979-07-19 09:34:10.960 ,2,0,,0,7.,4.8,0.,4.8,,0,0.,4.8,5.,4.8
1979-07-19 09:34:15.760 ,2,0,,0,0.,4.8,0.,4.8,,0,0.,4.8,2.,4.8
1979-07-19 09:34:20.560 ,2,0,,0,0.,4.8,0.,4.8,,0,0.,4.8,3.,4.8
1979-07-19 09:34:25.360 ,1,0,,0,0.,4.8,0.,4.8,,0,0.,4.8,4.,4.8
1979-07-19 09:34:30.160 ,1,0,,0,0.,4.8,0.,4.8,,0,0.,4.8,3.,4.8
1979-07-19 09:34:34.960 ,1,0,,0,2.,4.8,0.,4.8,,0,0.,4.8,1.,4.8
1979-07-19 09:34:39.760 ,1,0,,0,6.,4.8,1.,4.8,,0,0.,4.8,1.,4.8
1979-07-19 09:34:44.560 ,1,0,,0,7.,4.8,1.,4.8,,0,0.,4.8,3.,4.8
1979-07-19 09:36:01.360 ,0,0,,0,0.,4.8,0.,4.8,,0,0.,4.8,0.,4.8
1979-07-19 09:36:06.160 ,0,0,,0,0.,4.8,0.,4.8,,0,0.,4.8,0.,4.8
1979-07-19 09:36:10.960 ,0,0,,0,0.,4.8,0.,4.8,,0,0.,4.8,1.,4.8
1979-07-19 09:36:15.760 ,0,0,,0,2.,4.8,0.,4.8,,0,0.,4.8,0.,4.8
1979-07-19 09:36:20.560 ,0,0,,0,0.,4.8,0.,4.8,,0,0.,4.8,0.,4.8
1979-07-19 09:36:25.360 ,0,0,,0,0.,4.8,0.,4.8,,0,0.,4.8,1.,4.8
1979-07-19 09:36:30.160 ,0,0,,0,3.,4.8,0.,4.8,,0,0.,4.8,1.,4.8
1979-07-19 09:36:34.960 ,0,0,,0,2.,4.8,0.,4.8,,0,0.,4.8,0.,4.8
1979-07-19 09:36:39.760 ,0,0,,0,0.,4.8,0.,4.8,,0,0.,4.8,1.,4.8
1979-07-19 09:36:44.560 ,0,0,,0,0.,4.8,0.,4.8,,0,0.,4.8,0.,4.8
1979-07-19 09:37:37.360 ,2,0,,0,0.,4.8,0.,4.8,,0,0.,4.8,0.,4.8
1979-07-19 09:37:42.160 ,2,0,,0,0.,4.8,0.,4.8,,0,0.,4.8,1.,4.8
1979-07-19 09:37:46.960 ,2,0,,0,0.,4.8,0.,4.8,,0,0.,4.8,5.,4.8
1979-07-19 09:37:51.760 ,2,0,,0,5.,4.8,0.,4.8,,0,0.,4.8,6.,4.8
1979-07-19 09:37:56.560 ,2,0,,0,5.,4.8,1.,4.8,,0,0.,4.8,8.,4.8
1979-07-19 09:38:01.360 ,2,0,,0,9.,4.8,0.,4.8,,0,0.,4.8,5.,4.8
1979-07-19 09:38:06.160 ,2,0,,0,5.,4.8,0.,4.8,,0,0.,4.8,2.,4.8
1979-07-19 09:38:10.960 ,2,0,,0,5.,4.8,0.,4.8,,0,0.,4.8,1.,4.8
1979-07-19 09:38:15.760 ,2,0,,0,0.,4.8,0.,4.8,,0,0.,4.8,3.,4.8
1979-07-19 09:38:20.560 ,2,0,,0,0.,4.8,0.,4.8,,0,0.,4.8,6.,4.8
1979-07-19 09:39:13.360 ,4,0,,0,0.,4.8,0.,4.8,,0,0.,4.8,4.,4.8
1979-07-19 09:39:18.160 ,4,0,,0,0.,4.8,0.,4.8,,0,0.,4.8,2.,4.8
1979-07-19 09:39:22.960 ,4,0,,0,1.,4.8,0.,4.8,,0,0.,4.8,1.,4.8
1979-07-19 09:39:27.760 ,4,0,,0,12.,4.8,0.,4.8,,0,0.,4.8,1.,4.8
1979-07-19 09:39:32.560 ,4,0,,0,4.,4.8,0.,4.8,,0,0.,4.8,1.,4.8
1979-07-19 09:39:37.360 ,4,0,,0,9.,4.8,0.,4.8,,0,0.,4.8,3.,4.8
1979-07-19 09:39:42.160 ,4,0,,0,6.,4.8,0.,4.8,,0,0.,4.8,2.,4.8
1979-07-19 09:39:46.960 ,4,0,,0,7.,4.8,1.,4.8,,0,0.,4.8,2.,4.8
1979-07-19 09:39:51.760 ,4,0,,0,0.,4.8,0.,4.8,,0,0.,4.8,3.,4.8
1979-07-19 09:39:56.560 ,4,0,,0,0.,4.8,0.,4.8,,0,0.,4.8,3.,4.8
1979-07-19 09:41:13.360 ,6,0,,0,8.,4.8,0.,4.8,,0,0.,4.8,0.,4.8
1979-07-19 09:41:18.160 ,6,0,,0,8.,4.8,0.,4.8,,0,0.,4.8,0.,4.8
1979-07-19 09:41:22.960 ,6,0,,0,2.,4.8,0.,4.8,,0,0.,4.8,0.,4.8
1979-07-19 09:41:27.760 ,6,0,,0,0.,4.8,0.,4.8,,0,0.,4.8,0.,4.8
1979-07-19 09:41:32.560 ,6,0,,0,0.,4.8,0.,4.8,,0,0.,4.8,0.,4.8
1979-07-19 09:41:37.360 ,7,0,,0,0.,4.8,0.,4.8,,0,0.,4.8,1.,4.8
1979-07-19 09:41:42.160 ,7,0,,0,0.,4.8,0.,4.8,,0,0.,4.8,0.,4.8
1979-07-19 09:41:46.960 ,7,0,,0,1.,4.8,0.,4.8,,0,0.,4.8,0.,4.8
1979-07-19 09:41:51.760 ,7,0,,0,10.,4.8,0.,4.8,,0,0.,4.8,0.,4.8
1979-07-19 09:41:56.560 ,7,0,,0,16.,4.8,0.,4.8,,0,0.,4.8,0.,4.8
1979-07-19 09:43:37.360 ,6,0,,0,5.,4.8,0.,4.8,,0,0.,4.8,1.,4.8
1979-07-19 09:43:42.160 ,6,0,,0,7.,4.8,1.,4.8,,0,0.,4.8,0.,4.8
1979-07-19 09:43:46.960 ,6,0,,0,6.,4.8,0.,4.8,,0,0.,4.8,0.,4.8
1979-07-19 09:43:51.760 ,6,0,,0,0.,4.8,0.,4.8,,0,0.,4.8,1.,4.8
1979-07-19 09:43:56.560 ,6,0,,0,0.,4.8,0.,4.8,,0,0.,4.8,0.,4.8
1979-07-19 09:44:01.360 ,5,0,,0,0.,4.8,0.,4.8,,0,0.,4.8,1.,4.8
1979-07-19 09:44:06.160 ,5,0,,0,0.,4.8,0.,4.8,,0,0.,4.8,1.,4.8
1979-07-19 09:44:10.960 ,5,0,,0,1.,4.8,0.,4.8,,0,0.,4.8,0.,4.8
1979-07-19 09:44:15.760 ,5,0,,0,3.,4.8,1.,4.8,,0,0.,4.8,1.,4.8
1979-07-19 09:44:20.560 ,5,0,,0,0.,4.8,0.,4.8,,0,0.,4.8,1.,4.8
1979-07-19 09:44:25.360 ,5,0,,0,7.,4.8,0.,4.8,,0,0.,4.8,1.,4.8
1979-07-19 09:44:30.160 ,5,0,,0,8.,4.8,1.,4.8,,0,0.,4.8,1.,4.8
1979-07-19 09:44:34.960 ,5,0,,0,6.,4.8,1.,4.8,,0,0.,4.8,1.,4.8
1979-07-19 09:44:39.760 ,5,0,,0,0.,4.8,0.,4.8,,0,0.,4.8,0.,4.8
1979-07-19 09:44:44.560 ,5,0,,0,0.,4.8,0.,4.8,,0,0.,4.8,0.,4.8
1979-07-19 09:44:49.360 ,4,0,,0,0.,4.8,0.,4.8,,0,0.,4.8,1.,4.8
1979-07-19 09:44:54.160 ,4,0,,0,0.,4.8,0.,4.8,,0,0.,4.8,1.,4.8
1979-07-19 09:44:58.960 ,4,0,,0,1.,4.8,0.,4.8,,0,0.,4.8,0.,4.8
1979-07-19 09:45:03.760 ,4,0,,0,12.,4.8,0.,4.8,,0,0.,4.8,1.,4.8
1979-07-19 09:45:08.560 ,4,0,,0,9.,4.8,0.,4.8,,0,0.,4.8,1.,4.8
1979-07-19 09:45:13.360 ,4,0,,0,2.,4.8,0.,4.8,,0,0.,4.8,0.,4.8
1979-07-19 09:45:18.160 ,4,0,,0,3.,4.8,0.,4.8,,0,0.,4.8,1.,4.8
1979-07-19 09:45:22.960 ,4,0,,0,3.,4.8,1.,4.8,,0,0.,4.8,1.,4.8
1979-07-19 09:45:27.760 ,4,0,,0,0.,4.8,0.,4.8,,0,0.,4.8,1.,4.8
1979-07-19 09:45:32.560 ,4,0,,0,0.,4.8,0.,4.8,,0,0.,4.8,2.,4.8
1979-07-19 09:45:37.360 ,3,0,,0,0.,4.8,0.,4.8,,0,0.,4.8,0.,4.8
1979-07-19 09:45:42.160 ,3,0,,0,0.,4.8,0.,4.8,,0,0.,4.8,2.,4.8
1979-07-19 09:45:46.960 ,3,0,,0,1.,4.8,0.,4.8,,0,0.,4.8,3.,4.8
1979-07-19 09:45:51.760 ,3,0,,0,11.,4.8,0.,4.8,,0,0.,4.8,4.,4.8
1979-07-19 09:45:56.560 ,3,0,,0,5.,4.8,0.,4.8,,0,0.,4.8,3.,4.8
1979-07-19 09:46:01.360 ,3,0,,0,10.,4.8,1.,4.8,,0,0.,4.8,1.,4.8
1979-07-19 09:46:06.160 ,3,0,,0,9.,4.8,0.,4.8,,0,0.,4.8,3.,4.8
1979-07-19 09:46:10.960 ,3,0,,0,7.,4.8,0.,4.8,,0,0.,4.8,5.,4.8
1979-07-19 09:46:15.760 ,3,0,,0,0.,4.8,0.,4.8,,0,0.,4.8,4.,4.8
1979-07-19 09:46:20.560 ,3,0,,0,0.,4.8,0.,4.8,,0,0.,4.8,1.,4.8
1979-07-19 09:46:49.360 ,2,0,,0,8.,4.8,0.,4.8,,0,0.,4.8,3.,4.8
1979-07-19 09:46:54.160 ,2,0,,0,3.,4.8,0.,4.8,,0,0.,4.8,2.,4.8
1979-07-19 09:46:58.960 ,2,0,,0,4.,4.8,0.,4.8,,0,0.,4.8,2.,4.8
1979-07-19 09:47:03.760 ,2,0,,0,0.,4.8,0.,4.8,,0,0.,4.8,2.,4.8
1979-07-19 09:47:08.560 ,2,0,,0,0.,4.8,0.,4.8,,0,0.,4.8,3.,4.8
1979-07-19 09:47:13.360 ,1,0,,0,0.,4.8,0.,4.8,,0,0.,4.8,0.,4.8
1979-07-19 09:47:18.160 ,1,0,,0,0.,4.8,0.,4.8,,0,0.,4.8,1.,4.8
1979-07-19 09:47:22.960 ,1,0,,0,2.,4.8,0.,4.8,,0,0.,4.8,2.,4.8
1979-07-19 09:47:27.760 ,1,0,,0,5.,4.8,0.,4.8,,0,0.,4.8,2.,4.8
1979-07-19 09:47:32.560 ,1,0,,0,5.,4.8,0.,4.8,,0,0.,4.8,0.,4.8
1979-07-19 09:48:25.360 ,0,0,,0,2.,4.8,0.,4.8,,0,0.,4.8,0.,4.8
1979-07-19 09:48:30.160 ,0,0,,0,2.,4.8,0.,4.8,,0,0.,4.8,0.,4.8
1979-07-19 09:48:34.960 ,0,0,,0,1.,4.8,0.,4.8,,0,0.,4.8,1.,4.8
1979-07-19 09:48:39.760 ,0,0,,0,0.,4.8,0.,4.8,,0,0.,4.8,0.,4.8
1979-07-19 09:48:44.560 ,0,0,,0,0.,4.8,0.,4.8,,0,0.,4.8,0.,4.8
1979-07-19 09:48:49.360 ,0,0,,0,0.,4.8,0.,4.8,,0,0.,4.8,0.,4.8
1979-07-19 09:48:54.160 ,0,0,,0,0.,4.8,0.,4.8,,0,0.,4.8,0.,4.8
1979-07-19 09:48:58.960 ,0,0,,0,0.,4.8,0.,4.8,,0,0.,4.8,0.,4.8
1979-07-19 09:49:03.760 ,0,0,,0,4.,4.8,0.,4.8,,0,0.,4.8,0.,4.8
1979-07-19 09:49:08.560 ,0,0,,0,0.,4.8,0.,4.8,,0,0.,4.8,0.,4.8
1979-07-19 09:49:13.360 ,0,0,,0,0.,4.8,0.,4.8,,0,0.,4.8,0.,4.8
1979-07-19 09:49:18.160 ,0,0,,0,2.,4.8,0.,4.8,,0,0.,4.8,0.,4.8
1979-07-19 09:49:22.960 ,0,0,,0,1.,4.8,0.,4.8,,0,0.,4.8,0.,4.8
1979-07-19 09:49:27.760 ,0,0,,0,0.,4.8,0.,4.8,,0,0.,4.8,0.,4.8
1979-07-19 09:49:32.560 ,0,0,,0,0.,4.8,0.,4.8,,0,0.,4.8,0.,4.8
1979-07-19 09:49:37.360 ,1,0,,0,0.,4.8,0.,4.8,,0,0.,4.8,1.,4.8
1979-07-19 09:49:42.160 ,1,0,,0,0.,4.8,0.,4.8,,0,0.,4.8,0.,4.8
1979-07-19 09:49:46.960 ,1,0,,0,1.,4.8,0.,4.8,,0,0.,4.8,1.,4.8
1979-07-19 09:49:51.760 ,1,0,,0,2.,4.8,0.,4.8,,0,0.,4.8,2.,4.8
1979-07-19 09:49:56.560 ,1,0,,0,2.,4.8,0.,4.8,,0,0.,4.8,1.,4.8
1979-07-19 09:50:01.360 ,1,0,,0,5.,4.8,1.,4.8,,0,0.,4.8,2.,4.8
1979-07-19 09:50:06.160 ,1,0,,0,3.,4.8,1.,4.8,,0,0.,4.8,3.,4.8
1979-07-19 09:50:10.960 ,1,0,,0,7.,4.8,0.,4.8,,0,0.,4.8,1.,4.8
1979-07-19 09:50:15.760 ,1,0,,0,0.,4.8,0.,4.8,,0,0.,4.8,0.,4.8
1979-07-19 09:50:20.560 ,1,0,,0,0.,4.8,0.,4.8,,0,0.,4.8,2.,4.8
1979-07-19 09:50:25.360 ,2,0,,0,0.,4.8,0.,4.8,,0,0.,4.8,0.,4.8
1979-07-19 09:50:30.160 ,2,0,,0,0.,4.8,0.,4.8,,0,0.,4.8,3.,4.8
1979-07-19 09:50:34.960 ,2,0,,0,2.,4.8,0.,4.8,,0,0.,4.8,2.,4.8
1979-07-19 09:50:39.760 ,2,0,,0,4.,4.8,0.,4.8,,0,0.,4.8,2.,4.8
1979-07-19 09:50:44.560 ,2,0,,0,6.,4.8,3.,4.8,,0,0.,4.8,2.,4.8
1979-07-19 09:50:49.360 ,2,0,,0,4.,4.8,0.,4.8,,0,0.,4.8,4.,4.8
1979-07-19 09:50:54.160 ,2,0,,0,4.,4.8,1.,4.8,,0,0.,4.8,1.,4.8
1979-07-19 09:50:58.960 ,2,0,,0,4.,4.8,0.,4.8,,0,0.,4.8,1.,4.8
1979-07-19 09:51:03.760 ,2,0,,0,0.,4.8,0.,4.8,,0,0.,4.8,3.,4.8
1979-07-19 09:51:08.560 ,2,0,,0,0.,4.8,0.,4.8,,0,0.,4.8,0.,4.8
1979-07-19 09:51:13.360 ,3,0,,0,0.,4.8,0.,4.8,,0,0.,4.8,2.,4.8
1979-07-19 09:51:18.160 ,3,0,,0,0.,4.8,0.,4.8,,0,0.,4.8,2.,4.8
1979-07-19 09:51:22.960 ,3,0,,0,1.,4.8,0.,4.8,,0,0.,4.8,2.,4.8
1979-07-19 09:51:27.760 ,3,0,,0,5.,4.8,2.,4.8,,0,0.,4.8,2.,4.8
1979-07-19 09:51:32.560 ,3,0,,0,10.,4.8,1.,4.8,,0,0.,4.8,1.,4.8
1979-07-19 09:51:37.360 ,3,0,,0,7.,4.8,0.,4.8,,0,0.,4.8,2.,4.8
1979-07-19 09:51:42.160 ,3,0,,0,2.,4.8,0.,4.8,,0,0.,4.8,1.,4.8
1979-07-19 09:51:46.960 ,3,0,,0,4.,4.8,1.,4.8,,0,0.,4.8,0.,4.8
1979-07-19 09:51:51.760 ,3,0,,0,0.,4.8,0.,4.8,,0,0.,4.8,0.,4.8
1979-07-19 09:51:56.560 ,3,0,,0,0.,4.8,0.,4.8,,0,0.,4.8,2.,4.8
1979-07-19 09:52:01.360 ,4,0,,0,0.,4.8,0.,4.8,,0,0.,4.8,0.,4.8
1979-07-19 09:52:06.160 ,4,0,,0,0.,4.8,0.,4.8,,0,0.,4.8,4.,4.8
1979-07-19 09:52:10.960 ,4,0,,0,0.,4.8,0.,4.8,,0,0.,4.8,2.,4.8
1979-07-19 09:52:15.760 ,4,0,,0,6.,4.8,1.,4.8,,0,0.,4.8,0.,4.8
1979-07-19 09:52:20.560 ,4,0,,0,0.,4.8,0.,4.8,,0,0.,4.8,0.,4.8
1979-07-19 09:52:25.360 ,4,0,,0,3.,4.8,0.,4.8,,0,0.,4.8,0.,4.8
1979-07-19 09:52:30.160 ,4,0,,0,5.,4.8,1.,4.8,,0,0.,4.8,0.,4.8
1979-07-19 09:52:34.960 ,4,0,,0,0.,4.8,0.,4.8,,0,0.,4.8,1.,4.8
1979-07-19 09:52:39.760 ,4,0,,0,0.,4.8,0.,4.8,,0,0.,4.8,0.,4.8
1979-07-19 09:52:44.560 ,4,0,,0,0.,4.8,0.,4.8,,0,0.,4.8,0.,4.8
1979-07-19 09:52:49.360 ,5,0,,0,0.,4.8,0.,4.8,,0,0.,4.8,1.,4.8
1979-07-19 09:52:54.160 ,5,0,,0,0.,4.8,0.,4.8,,0,0.,4.8,1.,4.8
1979-07-19 09:52:58.960 ,5,0,,0,0.,4.8,0.,4.8,,0,0.,4.8,0.,4.8
1979-07-19 09:53:03.760 ,5,0,,0,3.,4.8,1.,4.8,,0,0.,4.8,1.,4.8
1979-07-19 09:53:08.560 ,5,0,,0,1.,4.8,0.,4.8,,0,0.,4.8,0.,4.8
1979-07-19 09:53:13.360 ,5,0,,0,3.,4.8,0.,4.8,,0,0.,4.8,0.,4.8
1979-07-19 09:53:18.160 ,5,0,,0,4.,4.8,0.,4.8,,0,0.,4.8,0.,4.8
1979-07-19 09:53:22.960 ,5,0,,0,3.,4.8,0.,4.8,,0,0.,4.8,0.,4.8
1979-07-19 09:53:27.760 ,5,0,,0,0.,4.8,0.,4.8,,0,0.,4.8,0.,4.8
1979-07-19 09:53:32.560 ,5,0,,0,0.,4.8,0.,4.8,,0,0.,4.8,0.,4.8
1979-07-19 09:53:37.360 ,6,0,,0,0.,4.8,0.,4.8,,0,0.,4.8,0.,4.8
1979-07-19 09:53:42.160 ,6,0,,0,0.,4.8,0.,4.8,,0,0.,4.8,2.,4.8
1979-07-19 09:53:46.960 ,6,0,,0,2.,4.8,0.,4.8,,0,0.,4.8,0.,4.8
1979-07-19 09:53:51.760 ,6,0,,0,7.,4.8,0.,4.8,,0,0.,4.8,0.,4.8
1979-07-19 09:53:56.560 ,6,0,,0,6.,4.8,0.,4.8,,0,0.,4.8,0.,4.8
1979-07-19 09:54:01.360 ,6,0,,0,3.,4.8,0.,4.8,,0,0.,4.8,0.,4.8
1979-07-19 09:54:06.160 ,6,0,,0,4.,4.8,0.,4.8,,0,0.,4.8,0.,4.8
1979-07-19 09:54:10.960 ,6,0,,0,3.,4.8,0.,4.8,,0,0.,4.8,1.,4.8
1979-07-19 09:54:15.760 ,6,0,,0,0.,4.8,0.,4.8,,0,0.,4.8,0.,4.8
1979-07-19 09:54:20.560 ,6,0,,0,0.,4.8,0.,4.8,,0,0.,4.8,0.,4.8
1979-07-19 09:54:25.360 ,7,0,,0,0.,4.8,0.,4.8,,0,0.,4.8,1.,4.8
1979-07-19 09:54:30.160 ,7,0,,0,0.,4.8,0.,4.8,,0,0.,4.8,0.,4.8
1979-07-19 09:54:34.960 ,7,0,,0,4.,4.8,0.,4.8,,0,0.,4.8,0.,4.8
1979-07-19 09:54:39.760 ,7,0,,0,17.,4.8,0.,4.8,,0,0.,4.8,1.,4.8
1979-07-19 09:54:44.560 ,7,0,,0,13.,4.8,0.,4.8,,0,0.,4.8,0.,4.8
1979-07-19 09:54:49.360 ,7,0,,0,9.,4.8,0.,4.8,,0,0.,4.8,0.,4.8
1979-07-19 09:54:54.160 ,7,0,,0,10.,4.8,0.,4.8,,0,0.,4.8,0.,4.8
1979-07-19 09:54:58.960 ,7,0,,0,11.,4.8,0.,4.8,,0,0.,4.8,0.,4.8
1979-07-19 09:55:03.760 ,7,0,,0,0.,4.8,0.,4.8,,0,0.,4.8,0.,4.8
1979-07-19 09:55:08.560 ,7,0,,0,0.,4.8,0.,4.8,,0,0.,4.8,0.,4.8
1979-07-19 09:55:13.360 ,3,1,,0,0.,4.8,0.,4.8,,0,0.,4.8,0.,4.8
1979-07-19 09:55:18.160 ,3,1,,0,0.,4.8,0.,4.8,,0,0.,4.8,0.,4.8
1979-07-19 09:55:22.960 ,3,1,,0,1.,4.8,0.,4.8,,0,0.,4.8,0.,4.8
1979-07-19 09:55:27.760 ,3,1,,0,5.,4.8,0.,4.8,,0,0.,4.8,1.,4.8
1979-07-19 09:55:32.560 ,3,1,,0,3.,4.8,0.,4.8,,0,0.,4.8,0.,4.8
1979-07-19 09:55:37.360 ,0,1,,0,10.,4.8,0.,4.8,,0,0.,4.8,1.,4.8
1979-07-19 09:55:42.160 ,0,1,,0,2.,4.8,0.,4.8,,0,0.,4.8,0.,4.8
1979-07-19 09:55:46.960 ,0,1,,0,3.,4.8,0.,4.8,,0,0.,4.8,0.,4.8
1979-07-19 09:55:51.760 ,0,1,,0,1.,4.8,0.,4.8,,0,0.,4.8,0.,4.8
1979-07-19 09:55:56.560 ,0,1,,0,0.,4.8,0.,4.8,,0,0.,4.8,0.,4.8
1979-07-19 09:56:01.360 ,4,1,,0,0.,4.8,0.,4.8,,0,0.,4.8,0.,4.8
1979-07-19 09:56:06.160 ,4,1,,0,0.,4.8,0.,4.8,,0,0.,4.8,1.,4.8
1979-07-19 09:56:10.960 ,4,1,,0,0.,4.8,0.,4.8,,0,0.,4.8,1.,4.8
1979-07-19 09:56:15.760 ,4,1,,0,4.,4.8,0.,4.8,,0,0.,4.8,0.,4.8
1979-07-19 09:56:20.560 ,4,1,,0,3.,4.8,0.,4.8,,0,0.,4.8,0.,4.8
1979-07-19 09:56:25.360 ,7,1,,0,5.,4.8,0.,4.8,,0,0.,4.8,0.,4.8
1979-07-19 09:56:30.160 ,7,1,,0,4.,4.8,0.,4.8,,0,0.,4.8,0.,4.8
1979-07-19 09:56:34.960 ,7,1,,0,7.,4.8,0.,4.8,,0,0.,4.8,0.,4.8
1979-07-19 09:56:39.760 ,7,1,,0,0.,4.8,0.,4.8,,0,0.,4.8,0.,4.8
1979-07-19 09:56:44.560 ,7,1,,0,0.,4.8,0.,4.8,,0,0.,4.8,0.,4.8
1979-07-19 09:56:49.360 ,3,1,,0,0.,4.8,0.,4.8,,0,0.,4.8,0.,4.8
1979-07-19 09:56:54.160 ,3,1,,0,0.,4.8,0.,4.8,,0,0.,4.8,0.,4.8
1979-07-19 09:56:58.960 ,3,1,,0,1.,4.8,0.,4.8,,0,0.,4.8,0.,4.8
1979-07-19 09:57:03.760 ,3,1,,0,2.,4.8,0.,4.8,,0,0.,4.8,1.,4.8
1979-07-19 09:57:08.560 ,3,1,,0,3.,4.8,0.,4.8,,0,0.,4.8,0.,4.8
1979-07-19 09:57:13.360 ,0,1,,0,4.,4.8,0.,4.8,,0,0.,4.8,0.,4.8
1979-07-19 09:57:18.160 ,0,1,,0,5.,4.8,0.,4.8,,0,0.,4.8,1.,4.8
1979-07-19 09:57:22.960 ,0,1,,0,3.,4.8,0.,4.8,,0,0.,4.8,2.,4.8